TimeMDT,TemperatureF,Dew PointF,Humidity,Sea Level PressureIn,VisibilityMPH,Wind Direction,Wind SpeedMPH,Gust SpeedMPH,PrecipitationIn,Events,Conditions,WindDirDegrees,DateUTC
12:15 AM,44.6,35.6,71,29.90,10.0,ENE,3.5,-,N/A,,Clear,70,2013-05-23 06:15:00
12:35 AM,44.6,35.6,71,29.90,10.0,East,6.9,-,N/A,,Scattered Clouds,100,2013-05-23 06:35:00
12:55 AM,42.8,35.6,76,29.90,10.0,NE,6.9,-,N/A,,Clear,40,2013-05-23 06:55:00
1:15 AM,42.8,35.6,76,29.90,10.0,East,9.2,-,N/A,,Clear,80,2013-05-23 07:15:00
1:35 AM,42.8,35.6,76,29.90,10.0,NNE,6.9,-,N/A,,Clear,20,2013-05-23 07:35:00
1:55 AM,42.8,35.6,76,29.89,10.0,NE,8.1,-,N/A,,Clear,40,2013-05-23 07:55:00
2:15 AM,42.8,35.6,76,29.89,10.0,NNE,8.1,-,N/A,,Scattered Clouds,30,2013-05-23 08:15:00
2:35 AM,42.8,35.6,76,29.89,10.0,NE,8.1,-,N/A,,Clear,50,2013-05-23 08:35:00
2:55 AM,42.8,35.6,76,29.89,10.0,ENE,8.1,-,N/A,,Clear,70,2013-05-23 08:55:00
3:15 AM,42.8,35.6,76,29.90,10.0,ENE,8.1,-,N/A,,Clear,70,2013-05-23 09:15:00
3:35 AM,42.8,35.6,76,29.90,10.0,ENE,3.5,-,N/A,,Clear,60,2013-05-23 09:35:00
3:55 AM,42.8,35.6,76,29.89,10.0,ENE,5.8,-,N/A,,Clear,60,2013-05-23 09:55:00
4:15 AM,42.8,35.6,76,29.89,10.0,East,6.9,-,N/A,,Clear,80,2013-05-23 10:15:00
4:35 AM,42.8,35.6,76,29.89,10.0,ENE,4.6,-,N/A,,Clear,60,2013-05-23 10:35:00
4:55 AM,42.8,35.6,76,29.90,10.0,NE,6.9,-,N/A,,Clear,40,2013-05-23 10:55:00
5:15 AM,41.0,35.6,81,29.90,10.0,NNE,5.8,-,N/A,,Clear,30,2013-05-23 11:15:00
5:35 AM,41.0,35.6,81,29.91,10.0,NW,3.5,-,N/A,,Mostly Cloudy,310,2013-05-23 11:35:00
5:55 AM,42.8,35.6,76,29.91,10.0,Calm,Calm,-,N/A,,Mostly Cloudy,0,2013-05-23 11:55:00
6:15 AM,42.8,33.8,70,29.91,10.0,Calm,Calm,-,N/A,,Scattered Clouds,0,2013-05-23 12:15:00
6:35 AM,42.8,33.8,70,29.91,10.0,ESE,5.8,-,N/A,,Scattered Clouds,110,2013-05-23 12:35:00
6:55 AM,42.8,33.8,70,29.91,10.0,East,3.5,-,N/A,,Mostly Cloudy,100,2013-05-23 12:55:00
7:15 AM,42.8,35.6,76,29.91,10.0,ESE,5.8,-,N/A,,Scattered Clouds,110,2013-05-23 13:15:00
7:35 AM,44.6,35.6,71,29.91,10.0,ESE,3.5,-,N/A,,Clear,110,2013-05-23 13:35:00
7:55 AM,44.6,35.6,71,29.92,10.0,SE,4.6,-,N/A,,Clear,130,2013-05-23 13:55:00
8:15 AM,46.4,33.8,62,29.92,10.0,SSE,5.8,-,N/A,,Clear,150,2013-05-23 14:15:00
8:35 AM,46.4,35.6,66,29.92,10.0,East,3.5,-,N/A,,Clear,100,2013-05-23 14:35:00
8:55 AM,46.4,35.6,66,29.91,10.0,SE,4.6,-,N/A,,Clear,130,2013-05-23 14:55:00
9:15 AM,48.2,35.6,62,29.92,10.0,SE,8.1,-,N/A,,Clear,130,2013-05-23 15:15:00
9:35 AM,46.4,37.4,71,29.92,10.0,SE,5.8,-,N/A,,Clear,140,2013-05-23 15:35:00
9:55 AM,48.2,37.4,66,29.92,10.0,SSE,6.9,-,N/A,,Clear,150,2013-05-23 15:55:00
10:15 AM,51.8,37.4,58,29.92,10.0,SE,6.9,-,N/A,,Clear,130,2013-05-23 16:15:00
10:35 AM,53.6,37.4,54,29.91,10.0,SE,10.4,-,N/A,,Clear,130,2013-05-23 16:35:00
10:55 AM,57.2,30.2,36,29.90,10.0,SSE,23.0,31.1,N/A,,Clear,160,2013-05-23 16:55:00
11:15 AM,60.8,19.4,20,29.89,10.0,South,19.6,40.3,N/A,,Clear,190,2013-05-23 17:15:00
11:35 AM,60.8,19.4,20,29.89,10.0,South,20.7,34.5,N/A,,Clear,190,2013-05-23 17:35:00
11:55 AM,60.8,21.2,22,29.88,10.0,South,19.6,39.1,N/A,,Scattered Clouds,190,2013-05-23 17:55:00
12:15 PM,62.6,19.4,19,29.89,10.0,South,28.8,41.4,N/A,,Scattered Clouds,180,2013-05-23 18:15:00
12:35 PM,62.6,17.6,18,29.88,10.0,South,26.5,40.3,N/A,,Scattered Clouds,180,2013-05-23 18:35:00
12:55 PM,62.6,17.6,18,29.87,10.0,SSW,20.7,40.3,N/A,,Scattered Clouds,200,2013-05-23 18:55:00
1:15 PM,62.6,14.0,15,29.87,10.0,South,24.2,40.3,N/A,,Scattered Clouds,190,2013-05-23 19:15:00
1:35 PM,64.4,15.8,15,29.86,10.0,South,26.5,41.4,N/A,,Mostly Cloudy,180,2013-05-23 19:35:00
1:55 PM,64.4,15.8,15,29.86,10.0,South,26.5,46.0,N/A,,Mostly Cloudy,190,2013-05-23 19:55:00
2:15 PM,64.4,14.0,14,29.86,10.0,South,24.2,44.9,N/A,,Scattered Clouds,190,2013-05-23 20:15:00
2:35 PM,64.4,14.0,14,29.86,10.0,South,21.9,48.3,N/A,,Scattered Clouds,190,2013-05-23 20:35:00
2:55 PM,62.6,15.8,16,29.86,10.0,South,21.9,43.7,N/A,,Mostly Cloudy,190,2013-05-23 20:55:00
3:15 PM,64.4,19.4,18,29.85,10.0,South,19.6,34.5,N/A,,Overcast,180,2013-05-23 21:15:00
3:35 PM,62.6,17.6,18,29.85,10.0,South,20.7,39.1,N/A,,Overcast,190,2013-05-23 21:35:00
3:55 PM,62.6,17.6,18,29.84,10.0,South,26.5,47.2,N/A,,Overcast,180,2013-05-23 21:55:00
4:15 PM,62.6,17.6,18,29.83,10.0,South,17.3,39.1,N/A,,Overcast,170,2013-05-23 22:15:00
4:35 PM,66.2,17.6,15,29.83,10.0,South,26.5,34.5,N/A,,Overcast,180,2013-05-23 22:35:00
4:55 PM,64.4,17.6,16,29.83,10.0,South,27.6,40.3,N/A,,Overcast,170,2013-05-23 22:55:00
5:15 PM,62.6,15.8,16,29.82,10.0,South,25.3,38.0,N/A,,Overcast,190,2013-05-23 23:15:00
5:35 PM,64.4,14.0,14,29.82,10.0,South,25.3,40.3,N/A,,Overcast,190,2013-05-23 23:35:00
5:55 PM,62.6,14.0,15,29.81,10.0,South,21.9,34.5,N/A,,Mostly Cloudy,190,2013-05-23 23:55:00
6:15 PM,62.6,14.0,15,29.82,10.0,South,20.7,34.5,N/A,,Overcast,190,2013-05-24 00:15:00
6:35 PM,62.6,14.0,15,29.81,10.0,South,19.6,38.0,N/A,,Overcast,190,2013-05-24 00:35:00
6:55 PM,62.6,14.0,15,29.81,10.0,South,23.0,33.4,N/A,,Overcast,180,2013-05-24 00:55:00
7:15 PM,62.6,14.0,15,29.80,10.0,South,26.5,34.5,N/A,,Overcast,180,2013-05-24 01:15:00
7:35 PM,62.6,14.0,15,29.81,10.0,South,23.0,35.7,N/A,,Overcast,190,2013-05-24 01:35:00
7:55 PM,60.8,15.8,17,29.81,10.0,South,21.9,31.1,N/A,,Mostly Cloudy,190,2013-05-24 01:55:00
8:15 PM,60.8,19.4,20,29.81,10.0,WSW,13.8,26.5,N/A,,Overcast,250,2013-05-24 02:15:00
8:35 PM,59.0,21.2,23,29.82,10.0,WSW,12.7,17.3,N/A,,Overcast,240,2013-05-24 02:35:00
8:55 PM,55.4,24.8,31,29.83,10.0,WSW,9.2,-,N/A,,Scattered Clouds,250,2013-05-24 02:55:00
9:15 PM,55.4,24.8,31,29.83,10.0,West,5.8,-,N/A,,Clear,260,2013-05-24 03:15:00
9:35 PM,53.6,24.8,33,29.84,10.0,WSW,8.1,-,N/A,,Clear,250,2013-05-24 03:35:00
9:55 PM,53.6,24.8,33,29.84,10.0,WSW,5.8,-,N/A,,Clear,250,2013-05-24 03:55:00
10:15 PM,55.4,23.0,29,29.85,10.0,WSW,5.8,-,N/A,,Clear,240,2013-05-24 04:15:00
10:35 PM,53.6,23.0,30,29.85,10.0,WSW,6.9,-,N/A,,Clear,240,2013-05-24 04:35:00
10:55 PM,53.6,23.0,30,29.85,10.0,SW,5.8,-,N/A,,Clear,220,2013-05-24 04:55:00
11:15 PM,53.6,23.0,30,29.86,10.0,SW,6.9,-,N/A,,Clear,220,2013-05-24 05:15:00
11:35 PM,51.8,24.8,35,29.87,10.0,WSW,5.8,-,N/A,,Clear,240,2013-05-24 05:35:00
11:55 PM,51.8,24.8,35,29.86,10.0,West,5.8,-,N/A,,Clear,260,2013-05-24 05:55:00